STARLINK-1890 (47173 NORAD) Tracking and Keplerian Element Data

This shows tracking and keplerian element data for the satellite.

Feedback or suggestion? Click here.




ElementValue
Catalog47173
NameSTARLINK-1890
Epoch Orbit175
Epoch Day59.91667824
Epoch Year2021
RAAN258.2296
Inclination53.0545
Eccentricity0.0002435
Argument of Perigee90.8311
Mean Anonmoly54.1402
Mean Motion15.06383352
Decay Rate0.0001952
L11 47173U 20088BD 21059.91667824 .00019520 00000-0 13263-2 0 9994
L22 47173 53.0545 258.2296 0002435 90.8311 54.1402 15.06383352 1751

Live tracking and technical data element details for STARLINK-1890 (NORAD 47173). STARLINK-1890 can be tracked NOW for your location showing map with azimuth and elevation plus other details from your city location.

Track the satellite on the map from your city or location and see movement details for azimuth, elevation, latitude, longitude, range, height, and movement on the map or in text.







IsCatalogInMostPopularTable: catalog: 47173, numindb: 35
Update: records affected: 1



GetName: 47173 STARLINK-1890

Hit Count: updated at: Mon, 01 Mar 2021 22:37:38 GMT